Home   Weather   Washington Hill   Past weeks
Flag for USA

Past Weather in Washington Hill, Alabama, USA — Yesterday and Last 2 Weeks

Now
79 °F

Clear.


Feels Like: 82 °F
Forecast: 91 / 74 °F
Wind: No wind

Location: Maxwell Air Force Base / Montgomery

Current Time: Jul 10, 2020 at 12:57:18 am

Latest Report: Jul 9, 2020 at 11:56 pm


Visibility: 10 mi

Pressure: 29.93 "Hg

Humidity: 83%

Dew Point: 73 °F

Location of Washington HillLocation

Past Weather in Washington Hill — Graph

°F

Washington Hill Temperature Yesterday

Maximum temperature yesterday: 90 °F (at 4:56 pm)
Minimum temperature yesterday: 73 °F (at 3:56 am)
Average temperature yesterday: 78 °F

High & Low Weather Summary for the Past Weeks

 TemperatureHumidityPressure
High92 °F (Jul 5, 3:56 pm)100% (Jun 25, 6:17 am)30.22 "Hg (Jun 25, 6:17 am)
Low69 °F (Jun 26, 3:56 am)45% (Jul 5, 3:56 pm)29.84 "Hg (Jul 4, 5:56 pm)
Average78 °F79%29.99 "Hg
* Reported Jun 24 10:42 pm — Jul 9 10:56 pm, Washington Hill. Weather by CustomWeather, © 2020

Note: Actual official high and low records may vary slightly from our data, if they occured in-between our weather recording intervals... More about our weather records

Washington Hill Weather History for the Previous 24 Hours

Scroll right to see more
 ConditionsComfort  
Time TempWeatherWind HumidityBarometerVisibility
10:56 pm
Thu, Jul 9
79 °FClear.No wind82%29.93 "Hg10 mi
9:56 pm80 °FClear.No wind81%29.92 "Hg10 mi
8:56 pm82 °FClear.No wind77%29.91 "Hg10 mi
7:56 pm84 °FClear.No wind75%29.89 "Hg10 mi
6:56 pm87 °FSunny.6 mph68%29.89 "Hg10 mi
5:56 pm89 °FPassing clouds.5 mph63%29.90 "Hg10 mi
4:56 pm90 °FPassing clouds.6 mph61%29.89 "Hg10 mi
3:56 pm89 °FScattered clouds.7 mph63%29.90 "Hg10 mi
2:56 pm89 °FScattered clouds.8 mph63%29.92 "Hg10 mi
1:56 pm82 °FPartly sunny.5 mph67%29.94 "Hg10 mi
12:56 pm81 °FBroken clouds.3 mph66%29.96 "Hg10 mi
11:56 am79 °FMostly cloudy.No wind70%29.97 "Hg10 mi
11:11 am79 °FOvercast.5 mph70%29.97 "Hg9 mi
10:56 am79 °FMostly cloudy.No wind72%29.97 "Hg10 mi
10:29 am79 °FOvercast.No wind79%29.97 "Hg10 mi
9:59 am79 °FOvercast.3 mph74%29.97 "Hg10 mi
9:09 am77 °FDrizzle. Mostly cloudy.No wind79%29.97 "Hg10 mi
8:36 am77 °FLow clouds.3 mph79%29.98 "Hg10 mi
8:01 am75 °FLight rain. Low clouds.3 mph78%29.97 "Hg8 mi
6:56 am73 °FLow clouds.5 mph84%29.97 "Hg8 mi
5:56 am74 °FLow clouds.3 mph84%29.95 "Hg9 mi
5:26 am73 °FLow clouds.3 mph83%29.94 "Hg3 mi
4:56 am74 °FMostly cloudy.No wind85%29.93 "Hg10 mi
3:56 am73 °FPassing clouds.No wind85%29.91 "Hg6 mi
3:11 am73 °FMostly cloudy.3 mph83%29.92 "Hg10 mi
2:41 am73 °FLow clouds.No wind83%29.91 "Hg10 mi
2:26 am73 °FPassing clouds.3 mph83%29.91 "Hg10 mi
2:11 am73 °FPartly cloudy.5 mph83%29.91 "Hg10 mi
1:56 am74 °FOvercast.No wind84%29.92 "Hg10 mi
1:26 am73 °FPassing clouds.No wind83%29.93 "Hg10 mi
1:11 am73 °FPartly cloudy.3 mph83%29.93 "Hg10 mi
12:56 am74 °FLow clouds.No wind82%29.93 "Hg10 mi
12:26 am75 °FOvercast.3 mph83%29.95 "Hg10 mi
Weather by CustomWeather, © 2020

See weather overview